Date String (YYYY-MM-DD hh:mm:ss) UTC,Instrument flags,Ambient pressure (hPa),Sample flow (lpm),Bypass flow (lpm),Sample temperature (°C),Ambient temperature (°C),ASC tube jacket temperature (°C),LED temperature (°C),Box temperature (°C),Sample RH (%),Span deviation,Mass concentration (μg/m³),Mass concentration (μg/m³),Mass concentration (μg/m³)
DateTimeUTC,F1_M11,P_M11,Q1_M11,Q2_M11,T1_M11,T2_M11,T3_M11,T4_M11,T5_M11,U1_M11,ZSPAN_M11,X0_M11,X2_M11,X1_M11
2022-08-04 23:00:00,,0826.5,5.00,0.00,29.3,28.0,00.0,38.0,31.3,22.4,0002.4,0020.32,0008.80,0006.75
2022-08-04 23:01:00,,0826.5,4.99,0.00,29.3,27.5,00.0,38.0,31.2,22.3,0002.7,0021.32,0008.79,0006.75
2022-08-04 23:02:00,,0826.5,5.01,0.00,29.3,27.2,00.0,37.9,31.1,22.1,0003.1,0020.98,0008.74,0006.76
2022-08-04 23:03:00,,0826.5,4.99,0.00,29.3,27.2,00.0,37.9,31.1,22.2,0003.5,0020.75,0008.78,0006.76
2022-08-04 23:04:00,,0826.4,5.01,0.00,29.2,27.4,00.0,37.9,31.0,22.3,0003.6,0021.52,0008.84,0006.77
2022-08-04 23:05:00,,0826.5,4.99,0.00,29.2,27.6,00.0,37.9,31.1,22.0,0003.6,0022.12,0008.91,0006.77
2022-08-04 23:06:00,,0826.4,5.00,0.00,29.3,27.8,00.0,38.0,31.2,22.1,0003.4,0021.32,0008.91,0006.79
2022-08-04 23:07:00,,0826.5,5.00,0.00,29.3,28.0,00.0,38.0,31.3,22.3,0003.6,0021.96,0008.88,0006.80
2022-08-04 23:08:00,,0826.5,4.99,0.00,29.3,27.8,00.0,38.0,31.2,21.9,0003.7,0021.64,0008.89,0006.81
2022-08-04 23:09:00,,0826.5,4.99,0.00,29.3,27.2,00.0,38.0,31.1,22.2,0003.2,0021.93,0008.92,0006.81
2022-08-04 23:10:00,,0826.5,5.01,0.00,29.2,27.1,00.0,37.9,31.1,22.0,0003.2,0021.74,0008.95,0006.81
2022-08-04 23:11:00,,0826.5,5.00,0.00,29.2,27.2,00.0,37.9,31.0,22.1,0002.6,0021.51,0008.93,0006.82
2022-08-04 23:12:00,,0826.5,5.00,0.00,29.2,27.4,00.0,37.9,31.0,22.4,0002.0,0020.52,0008.89,0006.84
2022-08-04 23:13:00,,0826.4,5.01,0.00,29.2,27.7,00.0,37.9,31.1,22.6,0002.0,0020.67,0008.93,0006.86
2022-08-04 23:14:00,,0826.5,5.00,0.00,29.3,27.9,00.0,37.9,31.2,22.3,0001.5,0020.50,0009.00,0006.88
2022-08-04 23:15:00,,0826.5,4.99,0.00,29.3,28.1,00.0,38.0,31.3,22.3,0001.3,0020.45,0008.98,0006.88
2022-08-04 23:16:00,,0826.5,5.00,0.00,29.3,27.9,00.0,38.0,31.3,22.0,0001.1,0020.89,0008.98,0006.90
2022-08-04 23:17:00,,0826.4,5.02,0.00,29.3,27.3,00.0,38.0,31.1,22.0,0001.2,0020.31,0008.98,0006.92
2022-08-04 23:18:00,,0826.5,4.99,0.00,29.3,27.2,00.0,38.0,31.1,22.0,0001.7,0020.67,0009.06,0006.93
2022-08-04 23:19:00,,0826.5,5.00,0.00,29.2,27.3,00.0,37.9,31.1,22.1,0001.6,0021.55,0009.13,0006.96
2022-08-04 23:20:00,,0826.5,5.00,0.00,29.2,27.4,00.0,37.9,31.1,22.3,0001.8,0021.31,0009.15,0006.97
2022-08-04 23:21:00,,0826.5,4.99,0.00,29.2,27.7,00.0,37.9,31.1,22.1,0002.1,0021.90,0009.12,0006.98
2022-08-04 23:22:00,,0826.5,5.00,0.00,29.3,27.9,00.0,38.0,31.2,22.0,0002.6,0022.10,0009.14,0006.97
2022-08-04 23:23:00,,0826.5,5.01,0.00,29.3,28.1,00.0,38.0,31.3,22.3,0002.9,0022.03,0009.26,0006.98
2022-08-04 23:24:00,,0826.5,5.00,0.00,29.4,27.9,00.0,38.0,31.3,22.6,0002.7,0022.16,0009.33,0006.97
2022-08-04 23:25:00,,0826.4,5.00,0.00,29.3,27.3,00.0,38.0,31.1,22.1,0002.7,0022.09,0009.27,0006.97
2022-08-04 23:26:00,,0826.4,4.99,0.00,29.3,27.1,00.0,38.0,31.1,21.6,0002.7,0022.59,0009.30,0006.99
2022-08-04 23:27:00,,0826.4,5.01,0.00,29.2,27.2,00.0,38.0,31.1,21.7,0002.9,0021.70,0009.30,0006.99
2022-08-04 23:28:00,,0826.4,5.00,0.00,29.2,27.4,00.0,37.9,31.1,21.9,0002.8,0022.31,0009.30,0006.98
2022-08-04 23:29:00,,0826.4,5.00,0.00,29.2,27.6,00.0,38.0,31.1,21.8,0002.3,0021.32,0009.25,0006.97
2022-08-04 23:30:00,,0826.4,5.00,0.00,29.3,27.9,00.0,38.0,31.2,21.7,0002.1,0020.64,0009.20,0006.94
2022-08-04 23:31:00,,0826.5,5.00,0.00,29.3,28.1,00.0,38.0,31.3,21.6,0001.9,0020.81,0009.12,0006.93
2022-08-04 23:32:00,,0826.5,5.01,0.00,29.4,28.2,00.0,38.0,31.4,21.6,0002.1,0020.51,0009.14,0006.94
2022-08-04 23:33:00,,0826.4,5.00,0.00,29.4,27.7,00.0,38.0,31.3,21.7,0001.7,0020.90,0009.12,0006.94
2022-08-04 23:34:00,,0826.4,4.99,0.00,29.3,27.2,00.0,38.0,31.2,21.7,0001.9,0021.03,0009.00,0006.93
2022-08-04 23:35:00,,0826.4,5.00,0.00,29.3,27.2,00.0,38.0,31.2,22.0,0001.9,0021.11,0008.91,0006.92
2022-08-04 23:36:00,,0826.3,5.01,0.00,29.3,27.4,00.0,38.0,31.1,22.3,0001.9,0021.52,0008.98,0006.91
2022-08-04 23:37:00,,0826.3,5.00,0.00,29.3,27.6,00.0,38.0,31.1,22.1,0002.2,0020.67,0009.01,0006.88
2022-08-04 23:38:00,,0826.3,5.00,0.00,29.3,27.8,00.0,38.0,31.2,22.2,0000.3,0020.63,0008.98,0006.86
2022-08-04 23:39:00,,0826.3,4.99,0.00,29.4,28.0,00.0,38.0,31.3,22.5,0000.0,0021.05,0008.95,0006.84
2022-08-04 23:40:00,,0826.3,5.00,0.00,29.4,28.1,00.0,38.0,31.4,22.7,0000.0,0021.99,0008.96,0006.84
2022-08-04 23:41:00,,0826.3,5.01,0.00,29.4,27.6,00.0,38.0,31.3,22.9,0000.0,0022.92,0008.97,0006.84
2022-08-04 23:42:00,,0826.3,4.99,0.00,29.3,27.2,00.0,38.0,31.1,23.3,0000.0,0022.61,0009.04,0006.83
2022-08-04 23:43:00,,0826.4,5.01,0.00,29.3,27.2,00.0,38.0,31.1,23.6,0001.3,0022.92,0009.12,0006.80
2022-08-04 23:44:00,,0826.3,5.00,0.00,29.3,27.3,00.0,38.0,31.1,23.3,0003.1,0022.36,0009.07,0006.78
2022-08-04 23:45:00,,0826.3,5.01,0.00,29.3,27.5,00.0,38.0,31.1,22.6,0003.2,0023.43,0009.04,0006.74
2022-08-04 23:46:00,,0826.3,5.00,0.00,29.3,27.8,00.0,38.0,31.2,22.4,0003.0,0023.61,0009.01,0006.70
2022-08-04 23:47:00,,0826.3,4.98,0.00,29.3,28.0,00.0,38.0,31.3,22.2,0003.1,0023.34,0008.95,0006.68
2022-08-04 23:48:00,,0826.3,5.00,0.00,29.4,28.2,00.0,38.0,31.4,21.8,0002.8,0023.57,0008.88,0006.65
2022-08-04 23:49:00,,0826.3,5.00,0.00,29.4,28.0,00.0,38.0,31.3,21.9,0002.7,0024.09,0008.87,0006.64
2022-08-04 23:50:00,,0826.2,5.01,0.00,29.3,27.3,00.0,38.0,31.1,21.8,0002.3,0023.55,0008.86,0006.62
2022-08-04 23:51:00,,0826.3,4.98,0.00,29.3,27.2,00.0,38.0,31.1,21.7,0002.1,0024.31,0008.80,0006.59
2022-08-04 23:52:00,,0826.2,5.01,0.00,29.3,27.2,00.0,38.0,31.1,21.7,0001.6,0023.50,0008.75,0006.55
2022-08-04 23:53:00,,0826.2,4.99,0.00,29.3,27.4,00.0,38.0,31.1,22.2,0001.5,0023.84,0008.68,0006.54
2022-08-04 23:54:00,,0826.2,5.00,0.00,29.3,27.6,00.0,38.0,31.1,22.2,0001.4,0023.93,0008.58,0006.53
2022-08-04 23:55:00,,0826.2,5.00,0.00,29.3,27.9,00.0,38.0,31.2,22.0,0001.2,0024.17,0008.59,0006.53
2022-08-04 23:56:00,,0826.2,5.00,0.00,29.4,28.1,00.0,38.0,31.3,22.0,0001.0,0023.72,0008.67,0006.53
2022-08-04 23:57:00,,0826.2,5.01,0.00,29.4,28.2,00.0,38.1,31.4,22.5,0001.4,0023.41,0008.66,0006.53
2022-08-04 23:58:00,,0826.2,4.99,0.00,29.4,27.7,00.0,38.0,31.3,22.7,0001.4,0024.37,0008.67,0006.52
2022-08-04 23:59:00,,0826.2,5.00,0.00,29.4,27.2,00.0,38.0,31.2,21.9,0001.4,0024.35,0008.66,0006.52
